Date String (YYYY-MM-DD hh:mm:ss) UTC,Instrument flags,Ambient pressure (hPa),Sample flow (lpm),Bypass flow (lpm),Sample temperature (°C),Ambient temperature (°C),ASC tube jacket temperature (°C),LED temperature (°C),Box temperature (°C),Sample RH (%),Span deviation,Mass concentration (μg/m³),Mass concentration (μg/m³),Mass concentration (μg/m³)
DateTimeUTC,F1_M11,P_M11,Q1_M11,Q2_M11,T1_M11,T2_M11,T3_M11,T4_M11,T5_M11,U1_M11,ZSPAN_M11,X0_M11,X2_M11,X1_M11
2021-10-18 00:00:00,,0825.2,4.99,0.00,29.9,28.6,00.0,38.8,31.7,10.3,-003.1,0018.28,0007.92,0006.92
2021-10-18 00:01:00,,0825.2,5.01,0.00,29.9,28.8,00.0,38.8,31.8,10.3,-002.4,0018.48,0007.91,0006.89
2021-10-18 00:02:00,,0825.1,5.00,0.00,30.0,29.0,00.0,38.9,31.9,10.3,-001.6,0018.17,0007.93,0006.87
2021-10-18 00:03:00,,0825.2,5.01,0.00,30.0,29.2,00.0,38.9,31.9,10.1,-001.8,0019.36,0007.92,0006.84
2021-10-18 00:04:00,,0825.1,5.01,0.00,30.1,29.3,00.0,38.9,32.0,10.0,-002.2,0019.96,0007.91,0006.82
2021-10-18 00:05:00,,0825.2,4.99,0.00,30.1,28.7,00.0,38.9,31.8,09.9,-001.9,0019.61,0007.86,0006.77
2021-10-18 00:06:00,,0825.2,5.01,0.00,29.9,26.3,00.0,38.9,31.1,10.0,-001.8,0019.49,0007.81,0006.73
2021-10-18 00:07:00,,0825.2,4.99,0.00,29.7,25.4,00.0,38.9,30.9,10.1,0011.3,0018.88,0007.84,0006.73
2021-10-18 00:08:00,,0825.1,5.00,0.00,29.6,25.8,00.0,38.8,30.9,10.1,0001.8,0018.76,0007.89,0006.74
2021-10-18 00:09:00,,0825.1,5.01,0.00,29.5,26.3,00.0,38.8,31.0,10.2,-001.1,0018.80,0007.91,0006.75
2021-10-18 00:10:00,,0825.1,5.00,0.00,29.5,26.8,00.0,38.7,31.1,10.2,0000.6,0017.78,0007.89,0006.76
2021-10-18 00:11:00,,0825.1,5.01,0.00,29.5,27.2,00.0,38.7,31.2,10.2,0000.9,0016.94,0007.90,0006.79
2021-10-18 00:12:00,,0825.1,4.99,0.00,29.6,27.6,00.0,38.7,31.3,10.2,-000.3,0017.35,0007.94,0006.82
2021-10-18 00:13:00,,0825.1,5.00,0.00,29.6,28.0,00.0,38.7,31.4,10.1,-001.2,0017.36,0007.95,0006.86
2021-10-18 00:14:00,,0825.1,5.01,0.00,29.6,28.2,00.0,38.7,31.5,10.1,-001.0,0016.62,0007.98,0006.88
2021-10-18 00:15:00,,0825.1,5.01,0.00,29.7,28.4,00.0,38.7,31.5,10.1,-001.3,0016.05,0008.01,0006.91
2021-10-18 00:16:00,,0825.1,5.00,0.00,29.7,28.6,00.0,38.7,31.6,10.2,-001.2,0016.29,0008.03,0006.95
2021-10-18 00:17:00,,0825.1,5.00,0.00,29.7,28.7,00.0,38.7,31.6,10.1,-001.5,0016.85,0008.05,0006.98
2021-10-18 00:18:00,,0825.1,4.99,0.00,29.8,28.9,00.0,38.7,31.7,10.1,-001.1,0017.29,0008.04,0007.00
2021-10-18 00:19:00,,0825.1,5.02,0.00,29.8,29.0,00.0,38.8,31.8,10.0,-002.1,0017.33,0008.00,0007.01
2021-10-18 00:20:00,,0825.1,4.99,0.00,29.9,29.1,00.0,38.8,31.8,10.0,-002.2,0017.04,0007.97,0007.02
2021-10-18 00:21:00,,0825.0,5.00,0.00,29.9,29.2,00.0,38.8,31.8,10.0,-002.7,0017.29,0007.91,0007.02
2021-10-18 00:22:00,,0825.1,4.99,0.00,30.0,29.2,00.0,38.8,31.9,10.1,-003.3,0016.93,0007.87,0007.02
2021-10-18 00:23:00,,0825.0,5.01,0.00,30.0,29.3,00.0,38.9,31.9,10.3,-003.5,0016.33,0007.83,0007.00
2021-10-18 00:24:00,,0825.0,4.99,0.00,30.1,29.4,00.0,38.9,32.0,10.5,-004.1,0016.07,0007.76,0006.94
2021-10-18 00:25:00,,0825.0,5.02,0.00,30.1,28.1,00.0,38.9,31.6,10.5,-004.1,0015.47,0007.78,0006.91
2021-10-18 00:26:00,,0825.0,4.98,0.00,29.9,26.3,00.0,38.9,31.2,10.5,-004.4,0015.11,0007.70,0006.87
2021-10-18 00:27:00,,0825.0,5.01,0.00,29.8,26.3,00.0,38.9,31.1,10.5,-004.5,0014.89,0007.65,0006.82
2021-10-18 00:28:00,,0825.0,5.00,0.00,29.7,26.7,00.0,38.8,31.2,10.6,-004.4,0014.15,0007.55,0006.73
2021-10-18 00:29:00,,0824.9,5.00,0.00,29.7,27.2,00.0,38.8,31.3,10.6,-003.8,0014.22,0007.48,0006.64
2021-10-18 00:30:00,,0825.0,5.00,0.00,29.7,27.6,00.0,38.8,31.4,10.7,-003.5,0013.81,0007.48,0006.60
2021-10-18 00:31:00,,0824.9,5.00,0.00,29.7,27.9,00.0,38.8,31.4,10.6,-003.6,0014.36,0007.41,0006.53
2021-10-18 00:32:00,,0824.9,4.99,0.00,29.7,28.2,00.0,38.8,31.5,10.6,-003.7,0014.59,0007.37,0006.46
2021-10-18 00:33:00,,0824.9,5.00,0.00,29.8,28.4,00.0,38.8,31.6,10.6,-003.7,0014.50,0007.34,0006.41
2021-10-18 00:34:00,,0824.9,4.99,0.00,29.8,28.6,00.0,38.8,31.6,10.6,-003.2,0014.59,0007.29,0006.37
2021-10-18 00:35:00,,0824.9,5.01,0.00,29.8,28.7,00.0,38.8,31.7,10.5,-002.5,0015.14,0007.29,0006.35
2021-10-18 00:36:00,,0824.9,5.02,0.00,29.9,28.8,00.0,38.8,31.7,10.5,-003.0,0015.32,0007.23,0006.32
2021-10-18 00:37:00,,0825.0,4.99,0.00,29.9,28.9,00.0,38.8,31.7,10.4,-002.7,0015.66,0007.19,0006.28
2021-10-18 00:38:00,,0824.9,4.99,0.00,29.9,29.0,00.0,38.9,31.7,10.4,-002.4,0016.33,0007.15,0006.25
2021-10-18 00:39:00,,0824.9,5.00,0.00,30.0,29.0,00.0,38.9,31.8,10.4,-002.8,0016.69,0007.16,0006.25
2021-10-18 00:40:00,,0824.9,5.01,0.00,30.0,29.1,00.0,38.9,31.9,10.3,-003.1,0016.03,0007.13,0006.26
2021-10-18 00:41:00,,0824.9,4.99,0.00,30.0,29.1,00.0,38.9,31.9,10.3,-003.4,0016.42,0007.09,0006.24
2021-10-18 00:42:00,,0824.9,5.01,0.00,30.1,29.2,00.0,39.0,31.9,10.3,-003.3,0015.80,0007.08,0006.23
2021-10-18 00:43:00,,0824.9,5.01,0.00,30.1,29.3,00.0,39.0,32.0,10.3,-003.3,0015.53,0007.04,0006.21
2021-10-18 00:44:00,,0824.9,4.99,0.00,30.1,28.4,00.0,39.0,31.7,10.3,-003.2,0016.95,0007.04,0006.16
2021-10-18 00:45:00,,0824.9,4.99,0.00,29.9,26.4,00.0,39.0,31.2,10.4,-003.3,0016.97,0007.00,0006.10
2021-10-18 00:46:00,,0824.9,5.01,0.00,29.8,26.2,00.0,38.9,31.1,10.5,-003.1,0016.45,0006.92,0006.03
2021-10-18 00:47:00,,0824.9,5.00,0.00,29.7,26.5,00.0,38.9,31.1,10.5,-002.8,0016.08,0006.85,0005.97
2021-10-18 00:48:00,,0824.9,5.00,0.00,29.7,27.0,00.0,38.8,31.2,10.6,-002.9,0016.13,0006.77,0005.89
2021-10-18 00:49:00,,0824.9,5.00,0.00,29.7,27.4,00.0,38.8,31.3,10.6,-002.8,0015.30,0006.70,0005.81
2021-10-18 00:50:00,,0824.9,5.00,0.00,29.7,27.7,00.0,38.8,31.4,10.5,-002.4,0014.75,0006.60,0005.73
2021-10-18 00:51:00,,0825.0,5.00,0.00,29.7,28.0,00.0,38.8,31.4,10.5,-002.1,0014.89,0006.56,0005.67
2021-10-18 00:52:00,,0824.9,4.99,0.00,29.7,28.2,00.0,38.8,31.5,10.5,-001.2,0014.87,0006.49,0005.61
2021-10-18 00:53:00,,0824.9,5.01,0.00,29.7,28.4,00.0,38.8,31.5,10.5,-000.6,0014.99,0006.42,0005.55
2021-10-18 00:54:00,,0824.9,4.98,0.00,29.8,28.5,00.0,38.8,31.6,10.5,0000.4,0014.69,0006.41,0005.52
2021-10-18 00:55:00,,0824.9,5.01,0.00,29.8,28.6,00.0,38.8,31.6,10.5,-000.2,0012.91,0006.28,0005.46
2021-10-18 00:56:00,,0824.9,4.99,0.00,29.8,28.7,00.0,38.8,31.7,10.5,-001.0,0012.79,0006.23,0005.40
2021-10-18 00:57:00,,0824.9,5.00,0.00,29.9,28.8,00.0,38.8,31.7,10.4,-001.4,0012.85,0006.19,0005.36
2021-10-18 00:58:00,,0824.9,4.99,0.00,29.9,28.8,00.0,38.9,31.7,10.4,-001.5,0012.60,0006.08,0005.31
2021-10-18 00:59:00,,0824.9,5.00,0.00,29.9,28.9,00.0,38.9,31.7,10.4,-001.2,0012.03,0005.97,0005.23
